VANGUARD DEB, 61446

Orbit data source: Space-Track

VANGUARD DEB, 61446 is space debris in LEO originally from a launch on Tue, 17 Feb 1959 UTC launched from the Air Force Eastern Test Range (AFETR). Debris objects in space refer to the collection of defunct objects orbiting the Earth. Examples of debris include non-operational satellites, rocket bodies, and fragments generated from explosions, collisions, or faulty payload assembly.

Loading next visibility...
Identifier
61446, 1959-001E
Orbit
LEO
Country
Flag of USUS
Related business
Manufacturer
Unknown
Mission
Spacecraft
Bus & Motor
Unknown
Mass
Unknown
Launch date (UTC)
1959-02-17 (67 years ago)
Launch vehicle
Unknown
Launch site
Air Force Eastern Test Range (AFETR)
Object type
Payload
Rocket body
Debris
Shape & HBR
Unknown shape, 0.1 m
Radar Cross Section
Small (<0.1 m²)

Expand to show TLE details & history
Last TLE update: 19 hours ago

TLE from 19 hours ago
0 VANGUARD DEB
1 61446U 59001E   26061.54585960  .00008154  00000-0  32631-2 0  9998
2 61446  32.8587 164.5030 1216106 168.0690 311.7382 12.43792865971607
Epoch: 2026-03-02T13:06Z
TLE epoch observation values (Epoch: 2026-03-02T13:06:02.269Z)
Latitude
31.13355°
Longitude
-80.81347°
Altitude
926.672 km
Speed
7.653 km/s
True Right ascension
18h 24m 08s
True Declination
30° 59' 06"
Sunlit
Object was in daylight at epoch
Visualization orbit readout
Latitude
Unknown
Longitude
Unknown
Altitude
Unknown
Speed
Unknown
Apparent Right ascension
Unknown
Apparent Declination
Unknown
Sunlit
N/A
Visualization observer readout
Local Sidereal Time
12:19:16
Azimuth
Unknown
Elevation
Unknown
Doppler factor
Unknown
Orbital elements
Apogee altitude
2,451.075 km
Perigee altitude
536.461 km
Semi-major axis
7,871.905 km
Eccentricity
0.12161
Inclination
32.8587°
RAAN
164.503°
Arg. of periapsis
168.069°
True anomaly
300.25303°
Mean anomaly
311.7382°
Eccentric anomaly
306.10895°
Mean motion
3.10759 °/min
Orbital period
115.85 mins
BSTAR
0.0032631
Loading maneuver chart data...
Computing Atmospheric mass density...
Loading historical data...
Loading historical data...
Loading historical data...
Loading historical data...
Loading historical data...
Loading historical data...
Loading historical data...
Other satellites on launch #1 in the year 1959 (1959-02-17 UTC)

Documentation

Showing up to 5 results
|